Powrót do katalogu

OPS 4682 DEB

AktywnyPO
NORAD 26733·DEBRIS·🇺🇸 United States

Wystrzelony Apr 3, 1965 z Vandenberg Space Force Base

Loading…

Następne Przeloty (najbliższe 24 godziny)

TLE

ŚwieżeSource: Space-Track

Epoka: Sep 14, 2026, 06:42 UTC

1 26733U 65027BG  26257.27918421  .00000005  00000-0 -69415-5 0  9993
2 26733  90.2476   8.1301 0032493 354.4358  33.5563 12.94446199208539

Śledź OPS 4682 DEB w czasie rzeczywistym z AllMySat

Download on the App Store